STARLETTE 1 07646U 75010A 12040.86254615 -.00000144 00000-0 59222-6 0 8388 2 07646 49.8244 271.7784 0205756 29.2014 332.0198 13.82279042869530 LAGEOS 1 1 08820U 76039A 12040.18449034 .00000006 00000-0 10000-3 0 2457 2 08820 109.8141 183.6572 0045067 344.3016 15.6105 6.38664564578791 AJISAI (EGS) 1 16908U 86061A 12040.86172203 -.00000083 00000-0 10000-3 0 7423 2 16908 50.0078 63.6985 0011586 160.5643 199.5637 12.44468623828096 LAGEOS 2 1 22195U 92070B 12040.22882521 -.00000009 00000-0 10000-3 0 4689 2 22195 52.6789 339.6847 0137829 55.2708 306.0751 6.47293866456272 STELLA 1 22824U 93061B 12040.73221139 -.00000055 00000-0 -46448-5 0 895 2 22824 98.5916 341.1675 0006071 359.1425 0.9761 14.27302934957209 WESTPAC 1 25398U 98043E 12040.85745076 -.00000040 00000-0 30101-6 0 3237 2 25398 98.3567 24.4986 0000433 283.5947 76.5180 14.22706332705603 GRACE-1 1 27391U 02012A 12040.76411320 .00003395 00000-0 89314-4 0 77 2 27391 89.0072 232.9852 0012455 306.2172 53.7933 15.38175891553763 GRACE-2 1 27392U 02012B 12040.76382270 .00003333 00000-0 87636-4 0 76 2 27392 89.0065 233.0103 0013320 307.1730 52.8305 15.38172517553764 GOC 1 34602U 09013A 12039.55292216 -.00000618 19017-5 -22343-7 0 5699 2 34602 96.6077 62.8482 0005405 23.8975 336.2554 16.05973106169697